Hourly Data Report for March 08, 2012

All times are specified in Local Standard Time (LST). Add 1 hour to adjust for Daylight Saving Time where and when it is observed.

Metadata including Station Name, Province, Latitude, Longitude, Elevation, Climate ID, WMO ID, TC ID
ST-JOVITE
QUEBEC
Latitude: 46°04'49.000" N Longitude: 74°33'21.000" W Elevation: 238.50 m
Climate ID: 703GDKB WMO ID: 71376 TC ID: WJT
Hourly Data Report for March 8, 2012
Temp Definition
°C

Dew Point Temp Definition
°C

Rel Hum Definition
%

Wind Dir Definition
10's deg
Wind Spd Definition
km/h

Visibility Definition
km

Stn Press Definition
kPa

Hmdx Definition

Wind Chill Definition

Weather Definition

TIME
00:00 9.0 1.3 58 19 7 98.44 LegendNANA
01:00 9.6 0.2 52 20 11 98.35 LegendNANA
02:00 9.8 -0.4 49 20 11 98.26 LegendNANA
03:00 9.8 -0.5 49 20 11 98.18 LegendNANA
04:00 9.3 -0.3 51 20 9 98.10 LegendNANA
05:00 9.1 0.1 53 19 9 98.04 LegendNANA
06:00 9.0 0.6 56 19 7 97.97 LegendNANA
07:00 8.6 1.3 60 19 9 97.90 LegendNANA
08:00 9.5 2.3 61 20 11 97.80 LegendNANA
09:00 9.9 2.3 59 19 13 97.72 LegendNANA
10:00 7.7 5.0 83 20 11 97.72 LegendNANA
11:00 7.6 5.8 88 19 9 97.60 LegendNANA
12:00 7.9 6.8 93 20 9 97.49 LegendNANA
13:00 8.2 7.0 92 21 13 97.39 LegendNANA
14:00 8.3 7.4 94 21 17 97.33 LegendNANA
15:00 8.4 7.3 93 21 17 97.24 LegendNANA
16:00 8.0 7.5 97 21 13 97.20 LegendNANA
17:00 7.1 6.7 97 24 11 97.24 LegendNANA
18:00 4.8 3.9 94 23 7 97.28 LegendNANA
19:00 3.7 2.9 94 25 7 97.31 LegendNANA
20:00 1.8 1.1 95 29 7 97.42 LegendNANA
21:00 0.5 0.3 99 25 7 97.58 LegendNANA
22:00 0.2 0.0 99 27 7 97.69 LegendNANA
23:00 -0.8 -2.0 92 32 11 97.81 -5 LegendNANA

Notes on Data Quality.

Legend
  • E = Estimated
  • M = Missing
  • NA = Not Available
  • ‡ = Partner data that is not subject to review by the National Climate Archives